ImprimablePdf
Antwerp, 25/04/2010, BEL - DVV Antwerp Marathon & 10 Miles
Liste des rapports > 10 Miles - Classement + Video
Recherche: Page: [1]
129 Entrées
 
Les réclamations ne sont plus acceptées, les résultats sont considérés comme définitifs.
RangNrNomAgeIOCTempsTkmMoy.ScrLocalité
1.6281FDE WOLF Greet57BEL1:15:514:43 12.731318MORTSEL
2.436FVAN DE VONDER Monique58BEL1:16:124:45 12.671381BEERZEL
3.18894FVAN DOORSELAER Greta56BEL1:24:545:17 11.383725DENDERMONDE
4.4176FVANDENSANDE Patrik55BEL1:25:265:19 11.303911MACHELEN (BT)
5.18497FPAREDIS Nil55BEL1:26:195:22 11.194213DEURNE (ANTWERPEN)
6.3686FDE WILDE Josee58BEL1:27:035:25 11.104473MESPELARE
7.6511FREITER Annelies56BEL1:27:095:25 11.084508OLEN
8.4709FVANDEWEEGE Marijke56BEL1:27:455:28 11.014752LUMMEN
9.3512FDE CLERCK Denise58BEL1:27:535:28 10.994797WUUSTWEZEL
10.3823FVERBRUGGEN Anne-Marie55BEL1:28:195:30 10.934963WAASMUNSTER
11.5714FPERMENTIER Maria56BEL1:28:525:32 10.875161BORNEM
12.6815FVIVIJS Mieke57BEL1:29:165:33 10.825325LINT
13.5103FDE CALUWE Colette56BEL1:30:045:36 10.725644GEETBETS
14.5801FVERBERCKMOES Lieve55BEL1:30:345:38 10.665834ZWIJNDRECHT
15.13534FVERDONCK Christine57BEL1:30:555:39 10.625961BORSBEEK (ANTW.)
16.19493FLUCKMAN Kor56NLD1:31:035:40 10.616016BAARLE-NASSAU
17.5992FCATTRYSSE Lutgarde55BEL1:31:325:42 10.556196HAMME
18.8034FVAN DEN BERGH Leen59BEL1:31:365:42 10.546217LOKEREN
19.18792FVAN MELE Helena58BEL1:31:455:43 10.536294SINT-NIKLAAS
20.13207FKEIRSMAEKERS Rita55BEL1:32:375:46 10.436630HEMIKSEM
21.18617FWITTOCK Ingrid57BEL1:33:105:48 10.376830MEERSEL-DREEF
22.11732FVAN HERCK Marie-Louise56BEL1:33:265:49 10.346935BERCHEM (ANTWERPEN)
23.18579FHEYNSSENS Rita57BEL1:33:505:50 10.297133MARIAKERKE (GENT)
24.19021FROMBAUT Annelies57BEL1:34:335:53 10.217479KIELDRECHT
25.16324FVERSTEYNEN Jeanne56BEL1:34:545:54 10.187602
26.1115FVAN DER ZIJDE Corrie55BEL1:35:385:57 10.107892HERENTALS
27.5898FDE POORTER Francine58BEL1:35:475:58 10.087944KALMTHOUT
28.18332FLAVRENSSE Mia58BEL1:36:125:59 10.048097BURCHT
29.19139FFORCEVILLE Marilou59BEL1:36:145:59 10.048115HEFFEN
30.11012FBUYENS Lieve56BEL1:36:165:59 10.038131OPWIJK
31.18739FBELS Annemie57BEL1:37:036:02 9.958464TERVUREN
32.11743FROTTIERS Marleen55BEL1:37:066:02 9.958480GENT
33.8908FGESTELS Nicole55BEL1:37:296:04 9.918627WIJNEGEM
34.18479FZERCK Sonja56BEL1:37:356:04 9.908671BONHEIDEN
35.9423FSPEELMANS Krist'L55BEL1:38:006:06 9.858837BRASSCHAAT
36.6650FBYL Rita55BEL1:39:016:10 9.759258BURCHT
37.13695FS+VE Jacqueline55BEL1:39:096:10 9.749309ANTWERPEN
38.319FVAN 'T KLOOSTER Els55NLD1:39:136:10 9.739329BREDA
39.11678FJANSEN Louisa56BEL1:39:146:10 9.739346KALMTHOUT
40.16824FDE MOOR Marianne57BEL1:39:496:13 9.689537
41.5690FCLAESSENS Julia59BEL1:39:506:13 9.679549WOMMELGEM
42.3215FVAN LOOVEREN Ria57BEL1:40:006:13 9.669604ZOERSEL
43.16218FVERHAGEN Eveline55BEL1:40:296:15 9.619748
44.7323FMERCKX Lieve56BEL1:40:436:16 9.599822MORTSEL
45.15376FHEIRBANT Linda56BEL1:40:466:16 9.599832
46.10536FNELISSEN Denise56BEL1:40:466:16 9.589834STABROEK
47.2613FVOS Rita59BEL1:40:476:16 9.589838LEEFDAAL
48.19209FDE COCK Lu55BEL1:41:176:18 9.549986SINT-PAUWELS
49.2300FENGELS Kathleen55BEL1:41:246:18 9.5310030ST LENAARTS
50.15478FGILLIS Vera57BEL1:41:506:20 9.4810198
51.15314FSTEVENS Kia57BEL1:42:406:23 9.4110447
52.19188FBERNAERS Hermine55BEL1:42:406:23 9.4110450BEZVEREN-WAAS
53.7505FJASON Rosette55BEL1:42:446:23 9.4010471ZONHOVEN
54.7458FBUSSCHOTS Magda56BEL1:42:526:24 9.3910509HOUTHALEN
55.16446FCOENEN Rita59BEL1:43:246:26 9.3410672ERPS-KWERPS
56.11256FMERCKX Greet55BEL1:43:326:26 9.3310719HOVE
57.14385FVAN DEN BOSSCHE Colette57BEL1:43:396:27 9.3210744SCHOTEN
58.6594FVAN IMPE Mimi56BEL1:43:466:27 9.3110792HOFSTADE (O.-VL.)
59.6733FMAES Anita55BEL1:43:496:28 9.3010814SCHOTEN
60.4752FDEWACHTER Anne56BEL1:43:566:28 9.2910838BRUGGE
61.10804FRAYMAEKERS Els56BEL1:43:566:28 9.2910841ANTWERPEN 5
62.4981FSCHWEIGER Daniela55NLD1:44:116:29 9.2710927GRONINGEN
63.14913FVERHAEGEN Rosette59BEL1:44:136:29 9.2710940
64.19573FSCHIPPERS Frida59BEL1:44:276:30 9.2511028DE PANNE
65.7575FELST Maria55BEL1:44:276:30 9.2511029WUUSTWEZEL
66.13767FVERNIERS Yolande55BEL1:45:316:34 9.1511296LOKEREN
67.11394FDE WIT Bea55BEL1:45:506:35 9.1311378KNOKKE-HEIST
68.13966FPATTYN Viviane59BEL1:46:576:39 9.0311646MORTSEL
69.6377FVAN GESTELEN Marleen55BEL1:47:026:39 9.0211664HEMIKSEM
70.10444FSAENEN Arlette58BEL1:47:246:41 8.9911754BRASSCHAAT
71.12895FCLEMENT Martine55BEL1:47:266:41 8.9911767ANTWERPEN 6
72.4023FVANBOVEN Chris59BEL1:47:346:41 8.9811806BRASSCHAAT
73.10744FVOS Tineke55NLD1:47:396:42 8.9711836EINDHOVEN
74.6787FVAN DUN Toos59NLD1:47:456:42 8.9611874GALDER
75.11870FDE KIMPE Hermine56BEL1:48:156:44 8.9212019KAPELLEN (ANTW.)
76.18818FVAN DEN ABBEEL Mit59BEL1:48:276:45 8.9112052DENDERMONDE
77.10946FVAN ELSEN Anita56BEL1:48:276:45 8.9112056LILLE
78.6856FHERMANS Monique57BEL1:48:286:45 8.9012061BRASSCHAAT
79.1273FVAN DEN BROECK Huguette56BEL1:48:406:46 8.8912120SCHERPENHEUVEL
80.11922FVETS Mia58BEL1:48:446:46 8.8812138HOBOKEN (ANTWERPEN)
81.2240FVINCX Hilde57BEL1:49:376:49 8.8112332HERENTALS
82.19541FDETHAL Marcelline57BEL1:49:426:49 8.8012356ANTWERPEN 5
83.11943FBELSACK Myriam57BEL1:49:476:50 8.8012380EDEGEM
84.2916FVANDENBROUCKE Christine56BEL1:49:496:50 8.7912386EVERBERG
85.4374FNUYTS Lieve57BEL1:50:296:52 8.7412510GEEL
86.4749FJANSSEN Maj58BEL1:50:306:52 8.7412514WUUSTWEZEL
87.9274FADAM Liliane55BEL1:51:026:54 8.7012630EKEREN (ANTWERPEN)
88.9473FDELBAEN Diane56BEL1:51:046:54 8.7012635BORGERHOUT (ANTWERPEN)
89.15190FSCHUERMANS Greta55BEL1:51:246:56 8.6712710
90.18569FAOORT Annemie58BEL1:51:276:56 8.6712726ZELE
91.14520FSCHRAUWEN Maria56BEL1:52:196:59 8.6012903ESSEN
92.13532FSTEENACKER Marie-Jeanne58BEL1:52:246:59 8.5912925DEURNE (ANTWERPEN)
93.12021FVAN BAELEN Rita56BEL1:52:277:00 8.5912941TURNHOUT
94.18780FFIVEZ Lieve56BEL1:53:007:02 8.5513032TEMSE
95.11026FMONSIEUR Yvette59BEL1:54:177:06 8.4513249OPWIJK
96.11103FVERBERCKMOES Lucienne56BEL1:54:177:07 8.4513253KRUIBEKE
97.4069FHOEYLAERTS Miek58BEL1:54:377:08 8.4313314HERENTALS
98.3982FDE WINTER Marthje58BEL1:55:007:09 8.4013365SCHOTEN
99.13266FVAN DEN BRIL Anne55BEL1:55:067:10 8.3913379BORGERHOUT (ANTWERPEN)
100.4055FVAN DEN BERGHE Lieve59BEL1:55:337:11 8.3613455AALST
101.18816FANSEEUW Marjan55BEL1:55:467:12 8.3413493GREMBERGEN
102.18438FHEIRMAN Jeannine58BEL1:56:137:14 8.3113551SCHELLE
103.10689FMETS Katri55BEL1:57:027:17 8.2513650ANTWERPEN 6
104.11947FBIJNENS Gerda59BEL1:57:137:17 8.2413670EDEGEM
105.8952FVOLKAERT Sonja57BEL1:57:567:20 8.1913754ZWIJNDRECHT
106.8890FVAN RAAK Ellen56BEL1:58:187:21 8.1613786RIJKEVORSEL
107.3033FARTS Trudi56NLD1:59:057:24 8.1113862ASSENDELFT
108.16422FMEREKE Marie Jose59BEL1:59:187:25 8.1013890
109.6513FMAES Christine57BEL1:59:247:26 8.0913899HAMME
110.6527FBRUGGEMAN Gerda59BEL1:59:247:26 8.0913904HAMME
111.2393FDE HEER Marjolein55NLD1:59:467:27 8.0613947ZAANDAM
112.10002FVAN DEN BOUHEDE Chris57BEL1:59:547:27 8.0513966MORTSEL
113.19008FCOOLS Christiane57BEL1:59:567:28 8.0513969MELSELE
114.11338FCLOETENS Anny55BEL2:00:097:28 8.0413984WESTMALLE
115.19652FBONJEAN Chris56BEL2:00:107:28 8.0413986ANTWERPEN
116.16264FVAES Ria55BEL2:01:027:32 7.9814035
117.15237FVERHOEVEN Lilianne57BEL2:01:517:35 7.9314098
118.4763FDE VLEESCHAUWER Marleen55BEL2:05:087:47 7.7214276WAREGEM
119.5287FBOSMAN Annita56BEL2:05:537:50 7.6714302MELSELE
120.4745FTROGH Martine55BEL2:06:557:54 7.6114336BORNEM-WINTAM
121.18890FVINCQUIER Ginette56BEL2:07:057:54 7.6014344OELEGEM
122.7110FHENDRICKX Linda55BEL2:09:058:02 7.4814409MORTSEL
123.2652FHOREMANS Lydia57BEL2:10:158:06 7.4214444MOL
124.14997FGENIAZ Demize57BEL2:11:128:10 7.3614462
125.3751FMATTHYSSEN Mirreille55BEL2:13:128:17 7.2514510VIERSEL
126.8632FVAN HOYWEGHEN Julienne59BEL2:15:528:27 7.1114552HEMIKSEM
127.1364FVAN DEN BOSSCHE Ingrid55BEL2:18:518:38 6.9614581HERENTALS
DNF14905FMISTIAEN Christine55BEL
DNF19440FVAN CAMP Liliane59BELBOECHOUT
DNF: abandon; DSQ: disqualifié; Vitesse en km/h
ChronoRace - Electronic Timing - www.chronorace.be